Princeton, MN

7:10 AM CST on November 21, 2019 (GMT -0600)
Princeton Municipal

Weather History for KPNM - September, 2019

Change the Weather History Date:

Wednesday, September 11, 2019

  Actual Average Record
Temperature  
Mean Temperature 56 °F -  
Max Temperature 62 °F 72 °F 95 °F (2012)
Min Temperature 51 °F 49 °F 32 °F (1999)
Degree Days  
Heating Degree Days 8    
Growing Degree Days 6 (Base 50)    
Moisture  
Dew Point 56 °F    
Average Humidity 92    
Maximum Humidity 100    
Minimum Humidity 82    
Precipitation  
Precipitation 0.00 in - - ()
Sea Level Pressure  
Sea Level Pressure 30.09 in    
Wind  
Wind Speed 8 mph (NE)    
Max Wind Speed 15 mph    
Max Gust Speed 21 mph    
Visibility 8 miles    
Events Rain , Thunderstorm    
Averages and records for this station are not official NWS values.
T = Trace of Precipitation, MM = Missing Value Source: NWS Daily Summary

Daily Weather History Graph

Daily Weather History Graph

Search for Another Location

Airport or City:

Astronomy

Sep. 11, 2019 Rise Set
Actual Time 6:47 AM CDT 7:33 PM CDT
Civil Twilight 6:17 AM CDT 8:03 PM CDT
Nautical Twilight 5:41 AM CDT 8:39 PM CDT
Astronomical Twilight 5:04 AM CDT 9:16 PM CDT
Moon 6:55 PM CDT (9/11) 3:59 AM CDT (9/11)
Length of Visible Light 13h 45m
Length of Day
12h 45m
Waxing Gibbous, 95% of the Moon is Illuminated
Sep 11
Waxing Gibbous
Sep 13
Full
Sep 21
Last Quarter
Sep 28
New
Oct 5
First Quarter

Hourly Weather History & Observations

Time (CDT) Temp. Dew Point Humidity Pressure Visibility Wind Dir Wind Speed Gust Speed Precip Events Conditions
12:18 AM 60.8 °F 57.2 °F 88% 30.07 in 10.0 mi NNE 4.6 mph - N/A   Clear
12:36 AM 60.8 °F 57.2 °F 88% 30.08 in 10.0 mi NNE 3.5 mph - N/A   Clear
12:55 AM 60.8 °F 57.2 °F 88% 30.08 in 10.0 mi NNE 5.8 mph - N/A   Clear
1:15 AM 60.8 °F 57.2 °F 88% 30.09 in 10.0 mi NNE 5.8 mph - N/A   Clear
1:39 AM 60.8 °F 57.2 °F 88% 30.09 in 10.0 mi NNE 5.8 mph - N/A   Clear
1:57 AM 60.8 °F 57.2 °F 88% 30.09 in 10.0 mi NNE 3.5 mph - N/A   Clear
2:15 AM 60.8 °F 57.2 °F 88% 30.07 in 10.0 mi NNE 9.2 mph - N/A   Clear
2:16 AM 60.8 °F 57.2 °F 88% 30.07 in 10.0 mi NNE 9.2 mph - N/A   Clear
2:35 AM 60.8 °F 57.2 °F 88% 30.07 in 10.0 mi NNE 6.9 mph - N/A   Clear
2:55 AM 60.8 °F 57.2 °F 88% 30.06 in 10.0 mi NE 5.8 mph - N/A   Clear
3:18 AM 60.8 °F 55.4 °F 82% 30.06 in 10.0 mi NNE 6.9 mph - N/A   Clear
3:36 AM 60.8 °F 55.4 °F 82% 30.08 in 10.0 mi ENE 3.5 mph - N/A   Mostly Cloudy
3:55 AM 60.8 °F 57.2 °F 88% 30.09 in 10.0 mi ENE 4.6 mph - N/A Rain Light Rain
3:56 AM 60.8 °F 57.2 °F 88% 30.09 in 10.0 mi ENE 4.6 mph - N/A Rain Light Rain
4:15 AM 59.0 °F 57.2 °F 94% 30.07 in 10.0 mi North 4.6 mph - N/A Thunderstorm Thunderstorm
4:16 AM 59.0 °F 57.2 °F 94% 30.07 in 10.0 mi NNE 4.6 mph - N/A Thunderstorm Thunderstorm
4:39 AM 59.0 °F 57.2 °F 94% 30.07 in 10.0 mi NNE 6.9 mph - N/A   Overcast
4:57 AM 59.0 °F 57.2 °F 94% 30.07 in 7.0 mi ENE 5.8 mph - N/A Thunderstorm Overcast
5:15 AM 59.0 °F 57.2 °F 94% 30.07 in 7.0 mi ENE 6.9 mph - N/A   Overcast
5:16 AM 59.0 °F 57.2 °F 94% 30.07 in 7.0 mi NE 8.1 mph - N/A   Overcast
5:35 AM 59.0 °F 57.2 °F 94% 30.06 in 7.0 mi NE 9.2 mph - N/A Thunderstorm Thunderstorm
5:36 AM 59.0 °F 57.2 °F 94% 30.06 in 7.0 mi NE 9.2 mph - N/A Thunderstorm Thunderstorm
5:55 AM 59.0 °F 57.2 °F 94% 30.05 in 10.0 mi NE 9.2 mph - N/A   Overcast
6:00 AM 59.0 °F 57.2 °F 94% 30.04 in 10.0 mi NE 10.4 mph - N/A   Overcast
6:18 AM 59.0 °F 57.2 °F 94% 30.04 in 10.0 mi ENE 11.5 mph 17.3 mph N/A   Overcast
6:36 AM 59.0 °F 57.2 °F 94% 30.03 in 10.0 mi ENE 10.4 mph 18.4 mph N/A   Overcast
6:55 AM 59.0 °F 57.2 °F 94% 30.02 in 10.0 mi East 11.5 mph 17.3 mph N/A   Overcast
6:56 AM 59.0 °F 57.2 °F 94% 30.01 in 10.0 mi East 11.5 mph 17.3 mph N/A   Overcast
7:15 AM 60.8 °F 57.2 °F 88% 30.00 in 10.0 mi East 11.5 mph 19.6 mph N/A   Overcast
7:16 AM 60.8 °F 57.2 °F 88% 30.00 in 10.0 mi East 11.5 mph 19.6 mph N/A   Overcast
7:39 AM 60.8 °F 57.2 °F 88% 30.01 in 10.0 mi NE 8.1 mph - N/A   Overcast
7:57 AM 60.8 °F 57.2 °F 88% 30.04 in 10.0 mi NNW 8.1 mph - N/A   Overcast
8:15 AM 60.8 °F 57.2 °F 88% 30.05 in 4.0 mi NNW 12.7 mph 17.3 mph N/A   Overcast
8:16 AM 60.8 °F 57.2 °F 88% 30.05 in 4.0 mi NNW 12.7 mph 17.3 mph N/A   Overcast
8:35 AM 59.0 °F 57.2 °F 94% 30.06 in 4.0 mi North 13.8 mph 18.4 mph N/A   Overcast
8:36 AM 59.0 °F 57.2 °F 94% 30.06 in 4.0 mi North 11.5 mph 18.4 mph N/A   Overcast
8:55 AM 59.0 °F 57.2 °F 94% 30.06 in 3.0 mi NNE 13.8 mph 19.6 mph N/A   Overcast
9:00 AM 59.0 °F 57.2 °F 94% 30.06 in 4.0 mi North 12.7 mph 20.7 mph N/A   Overcast
9:18 AM 57.2 °F 57.2 °F 100% 30.07 in 4.0 mi NNE 13.8 mph 17.3 mph N/A   Overcast
9:36 AM 57.2 °F 57.2 °F 100% 30.07 in 7.0 mi NE 10.4 mph - N/A   Overcast
9:55 AM 59.0 °F 57.2 °F 94% 30.07 in 10.0 mi NE 8.1 mph - N/A   Overcast
9:56 AM 59.0 °F 57.2 °F 94% 30.06 in 10.0 mi NE 6.9 mph - N/A   Overcast
10:15 AM 59.0 °F 57.2 °F 94% 30.07 in 7.0 mi NE 9.2 mph 17.3 mph N/A   Overcast
10:16 AM 59.0 °F 57.2 °F 94% 30.07 in 7.0 mi NE 8.1 mph 17.3 mph N/A   Overcast
10:39 AM 59.0 °F 57.2 °F 94% 30.07 in 10.0 mi NE 8.1 mph 16.1 mph N/A   Overcast
10:57 AM 59.0 °F 57.2 °F 94% 30.06 in 10.0 mi NE 9.2 mph - N/A   Overcast
11:15 AM 60.8 °F 57.2 °F 88% 30.07 in 10.0 mi ENE 5.8 mph 16.1 mph N/A   Overcast
11:35 AM 60.8 °F 57.2 °F 88% 30.08 in 10.0 mi ENE 5.8 mph - N/A   Overcast
11:36 AM 60.8 °F 57.2 °F 88% 30.08 in 10.0 mi ENE 4.6 mph - N/A   Overcast
11:55 AM 60.8 °F 59.0 °F 94% 30.08 in 7.0 mi NE 6.9 mph - N/A   Overcast
12:00 PM 60.8 °F 59.0 °F 94% 30.08 in 10.0 mi NE 6.9 mph - N/A   Overcast
12:18 PM 60.8 °F 59.0 °F 94% 30.08 in 10.0 mi NE 9.2 mph - N/A   Overcast
12:36 PM 60.8 °F 59.0 °F 94% 30.08 in 10.0 mi NE 9.2 mph - N/A   Overcast
12:55 PM 60.8 °F 59.0 °F 94% 30.08 in 5.0 mi NE 9.2 mph 17.3 mph N/A   Overcast
1:15 PM 60.8 °F 59.0 °F 94% 30.09 in 5.0 mi NNE 11.5 mph - N/A   Overcast
1:16 PM 60.8 °F 59.0 °F 94% 30.09 in 5.0 mi NE 10.4 mph - N/A   Overcast
1:38 PM 60.8 °F 59.0 °F 94% 30.09 in 4.0 mi NNE 6.9 mph - N/A   Overcast
1:57 PM 60.8 °F 59.0 °F 94% 30.10 in 2.0 mi NE 9.2 mph - N/A   Overcast
2:15 PM 60.8 °F 60.8 °F 100% 30.10 in 2.0 mi NNE 8.1 mph 16.1 mph N/A   Overcast
2:35 PM 62.6 °F 60.8 °F 94% 30.10 in 4.0 mi NE 12.7 mph - N/A   Overcast
2:55 PM 62.6 °F 60.8 °F 94% 30.10 in 5.0 mi NE 12.7 mph 20.7 mph N/A   Overcast
2:59 PM 60.8 °F 59.0 °F 94% 30.10 in 5.0 mi NE 12.7 mph 20.7 mph N/A   Overcast
3:18 PM 62.6 °F 60.8 °F 94% 30.11 in 3.0 mi NNE 9.2 mph - N/A   Overcast
3:36 PM 60.8 °F 57.2 °F 88% 30.11 in 2.5 mi North 11.5 mph - N/A   Light Drizzle
3:55 PM 59.0 °F 57.2 °F 94% 30.12 in 3.0 mi North 13.8 mph 20.7 mph N/A   Overcast
4:15 PM 59.0 °F 57.2 °F 94% 30.12 in 7.0 mi NNE 9.2 mph - N/A   Overcast
4:16 PM 59.0 °F 57.2 °F 94% 30.12 in 7.0 mi NNE 9.2 mph - N/A   Overcast
4:39 PM 57.2 °F 55.4 °F 94% 30.12 in 10.0 mi NNE 13.8 mph 19.6 mph N/A   Overcast
4:57 PM 57.2 °F 55.4 °F 94% 30.13 in 10.0 mi NNE 15.0 mph 18.4 mph N/A   Overcast
5:15 PM 57.2 °F 55.4 °F 94% 30.12 in 10.0 mi NNE 10.4 mph 18.4 mph N/A   Overcast
5:36 PM 57.2 °F 55.4 °F 94% 30.13 in 10.0 mi NE 12.7 mph 19.6 mph N/A   Overcast
5:55 PM 57.2 °F 53.6 °F 88% 30.13 in 10.0 mi NNE 10.4 mph 18.4 mph N/A   Overcast
6:00 PM 57.2 °F 53.6 °F 88% 30.13 in 10.0 mi NNE 9.2 mph 19.6 mph N/A   Overcast
6:18 PM 57.2 °F 53.6 °F 88% 30.13 in 10.0 mi NNE 10.4 mph 16.1 mph N/A   Overcast
6:36 PM 55.4 °F 53.6 °F 94% 30.14 in 10.0 mi NE 10.4 mph 16.1 mph N/A   Overcast
6:55 PM 55.4 °F 53.6 °F 94% 30.14 in 10.0 mi NE 10.4 mph - N/A   Overcast
6:56 PM 55.4 °F 53.6 °F 94% 30.14 in 10.0 mi NE 9.2 mph - N/A   Overcast
7:15 PM 55.4 °F 53.6 °F 94% 30.14 in 5.0 mi NE 10.4 mph 18.4 mph N/A   Overcast
7:39 PM 55.4 °F 53.6 °F 94% 30.14 in 10.0 mi NE 8.1 mph - N/A   Overcast
7:57 PM 55.4 °F 53.6 °F 94% 30.14 in 10.0 mi NNE 9.2 mph 16.1 mph N/A   Overcast
8:15 PM 55.4 °F 51.8 °F 88% 30.15 in 7.0 mi NNE 8.1 mph 16.1 mph N/A   Overcast
8:16 PM 55.4 °F 53.6 °F 94% 30.15 in 7.0 mi NNE 8.1 mph 16.1 mph N/A   Overcast
8:35 PM 53.6 °F 51.8 °F 94% 30.14 in 7.0 mi NNE 8.1 mph - N/A   Overcast
8:55 PM 53.6 °F 51.8 °F 94% 30.14 in 7.0 mi NNE 11.5 mph 17.3 mph N/A   Overcast
9:17 PM 53.6 °F 51.8 °F 94% 30.15 in 10.0 mi NNE 8.1 mph 20.7 mph N/A   Overcast
9:36 PM 53.6 °F 51.8 °F 94% 30.15 in 10.0 mi NNE 8.1 mph 16.1 mph N/A   Overcast
9:55 PM 51.8 °F 50.0 °F 94% 30.14 in 7.0 mi NE 8.1 mph 18.4 mph N/A   Overcast
9:56 PM 51.8 °F 50.0 °F 94% 30.14 in 7.0 mi NE 10.4 mph 18.4 mph N/A   Overcast
10:15 PM 51.8 °F 50.0 °F 94% 30.14 in 7.0 mi NNE 13.8 mph 17.3 mph N/A   Overcast
10:16 PM 51.8 °F 50.0 °F 94% 30.14 in 7.0 mi NE 12.7 mph 17.3 mph N/A   Overcast
10:39 PM 51.8 °F 50.0 °F 94% 30.15 in 5.0 mi NE 12.7 mph 18.4 mph N/A   Overcast
10:56 PM 51.8 °F 50.0 °F 94% 30.16 in 10.0 mi NE 10.4 mph - N/A   Overcast
11:15 PM 51.8 °F 50.0 °F 94% 30.16 in 10.0 mi NNE 9.2 mph - N/A   Overcast
11:16 PM 51.8 °F 50.0 °F 94% 30.16 in 10.0 mi NNE 10.4 mph - N/A   Overcast
11:35 PM 51.8 °F 50.0 °F 94% 30.12 in 7.0 mi NE 11.5 mph 16.1 mph N/A   Overcast
11:36 PM 51.8 °F 50.0 °F 94% 30.12 in 7.0 mi NE 11.5 mph 16.1 mph N/A   Overcast
11:55 PM 51.8 °F 50.0 °F 94% 30.12 in 10.0 mi NE 12.7 mph 18.4 mph N/A   Overcast
11:59 PM 51.8 °F 50.0 °F 94% 30.12 in 10.0 mi NE 8.1 mph 18.4 mph N/A   Overcast